Wetterdaten: Montag, 08.12.2014
Datum Zeit Temp. A. Feuchte A. Luftdruck Regen Wind Richtung Richtung Sonnenschein ET UV Solar Taupunkt Windchill Windben Empfang
08.12.2014 00:00 2,8 C 85 % 1020,1 hPa 0,0 l/m 0,4 km/h (0 Bft) S-SW 192 0 min 0,000 mm 0,0 UV-I 0 W/m 0,5 C 2,8 C 4,0 km/h (1 Bft) 0,00 %
08.12.2014 00:15 2,7 C 84 % 1020,1 hPa 0,0 l/m 0,4 km/h (0 Bft) W-SW 256 0 min 0,000 mm 0,0 UV-I 0 W/m 0,3 C 2,7 C 4,0 km/h (1 Bft) 0,00 %
08.12.2014 00:30 2,7 C 84 % 1020,3 hPa 0,0 l/m 0,4 km/h (0 Bft) W-SW 250 0 min 0,000 mm 0,0 UV-I 0 W/m 0,3 C 2,7 C 4,0 km/h (1 Bft) 0,00 %
08.12.2014 00:45 2,6 C 84 % 1020,2 hPa 0,0 l/m 0,4 km/h (0 Bft) N-NW 331 0 min 0,000 mm 0,0 UV-I 0 W/m 0,2 C 2,6 C 4,0 km/h (1 Bft) 0,00 %
08.12.2014 01:00 2,6 C 85 % 1020,0 hPa 0,0 l/m 3,2 km/h (1 Bft) SW 233 0 min 0,000 mm 0,0 UV-I 0 W/m 0,3 C 2,6 C 4,0 km/h (1 Bft) 0,00 %
08.12.2014 01:15 2,7 C 85 % 1020,1 hPa 0,0 l/m 4,0 km/h (1 Bft) W-SW 253 0 min 0,000 mm 0,0 UV-I 0 W/m 0,4 C 2,7 C 7,9 km/h (2 Bft) 0,00 %
08.12.2014 01:30 2,7 C 85 % 1020,1 hPa 0,0 l/m 0,0 km/h (0 Bft) S 185 0 min 0,000 mm 0,0 UV-I 0 W/m 0,4 C 2,7 C 0,0 km/h (0 Bft) 0,00 %
08.12.2014 01:45 2,8 C 85 % 1019,9 hPa 0,0 l/m 3,2 km/h (1 Bft) W-NW 301 0 min 0,000 mm 0,0 UV-I 0 W/m 0,5 C 2,8 C 7,9 km/h (2 Bft) 0,00 %
08.12.2014 02:00 2,8 C 84 % 1019,8 hPa 0,0 l/m 0,0 km/h (0 Bft) W-NW 300 0 min 0,000 mm 0,0 UV-I 0 W/m 0,4 C 2,8 C 0,0 km/h (0 Bft) 0,00 %
08.12.2014 02:15 2,8 C 84 % 1019,9 hPa 0,0 l/m 1,8 km/h (1 Bft) W-SW 256 0 min 0,000 mm 0,0 UV-I 0 W/m 0,4 C 2,8 C 4,0 km/h (1 Bft) 0,00 %
08.12.2014 02:30 2,9 C 84 % 1019,7 hPa 0,0 l/m 0,0 km/h (0 Bft) NO 35 0 min 0,000 mm 0,0 UV-I 0 W/m 0,5 C 2,9 C 0,0 km/h (0 Bft) 0,00 %
08.12.2014 02:45 2,9 C 84 % 1020,0 hPa 0,0 l/m 0,4 km/h (0 Bft) W-SW 256 0 min 0,000 mm 0,0 UV-I 0 W/m 0,5 C 2,9 C 4,0 km/h (1 Bft) 0,00 %
08.12.2014 03:00 2,9 C 84 % 1019,8 hPa 0,0 l/m 0,0 km/h (0 Bft) SW 218 0 min 0,000 mm 0,0 UV-I 0 W/m 0,5 C 2,9 C 0,0 km/h (0 Bft) 0,00 %
08.12.2014 03:15 3,0 C 83 % 1019,7 hPa 0,0 l/m 1,8 km/h (1 Bft) W-SW 255 0 min 0,000 mm 0,0 UV-I 0 W/m 0,4 C 3,0 C 4,0 km/h (1 Bft) 0,00 %
08.12.2014 03:30 3,1 C 83 % 1019,6 hPa 0,0 l/m 0,0 km/h (0 Bft) W-SW 256 0 min 0,000 mm 0,0 UV-I 0 W/m 0,5 C 3,1 C 0,0 km/h (0 Bft) 0,00 %
08.12.2014 03:45 3,0 C 83 % 1019,3 hPa 0,0 l/m 0,0 km/h (0 Bft) W-SW 251 0 min 0,000 mm 0,0 UV-I 0 W/m 0,4 C 3,0 C 0,0 km/h (0 Bft) 0,00 %
08.12.2014 04:00 3,0 C 83 % 1019,6 hPa 0,0 l/m 1,8 km/h (1 Bft) W-SW 256 0 min 0,000 mm 0,0 UV-I 0 W/m 0,4 C 3,0 C 4,0 km/h (1 Bft) 0,00 %
08.12.2014 04:15 3,0 C 83 % 1019,6 hPa 0,0 l/m 2,2 km/h (1 Bft) W-SW 251 0 min 0,000 mm 0,0 UV-I 0 W/m 0,4 C 3,0 C 4,0 km/h (1 Bft) 0,00 %
08.12.2014 04:30 3,0 C 83 % 1019,6 hPa 0,0 l/m 0,4 km/h (0 Bft) W-SW 253 0 min 0,000 mm 0,0 UV-I 0 W/m 0,4 C 3,0 C 4,0 km/h (1 Bft) 0,00 %
08.12.2014 04:45 2,9 C 82 % 1019,5 hPa 0,0 l/m 0,0 km/h (0 Bft) NW 319 0 min 0,000 mm 0,0 UV-I 0 W/m 0,1 C 2,9 C 0,0 km/h (0 Bft) 0,00 %
08.12.2014 05:00 2,6 C 83 % 1019,5 hPa 0,0 l/m 0,0 km/h (0 Bft) W-SW 252 0 min 0,000 mm 0,0 UV-I 0 W/m 0,0 C 2,6 C 0,0 km/h (0 Bft) 0,00 %
08.12.2014 05:15 2,5 C 83 % 1019,7 hPa 0,0 l/m 0,0 km/h (0 Bft) SW 228 0 min 0,000 mm 0,0 UV-I 0 W/m -0,1 C 2,5 C 0,0 km/h (0 Bft) 0,00 %
08.12.2014 05:30 2,3 C 79 % 1019,7 hPa 0,0 l/m 0,0 km/h (0 Bft) W-SW 250 0 min 0,000 mm 0,0 UV-I 0 W/m -1,0 C 2,3 C 0,0 km/h (0 Bft) 0,00 %
08.12.2014 05:45 2,3 C 82 % 1019,6 hPa 0,0 l/m 0,4 km/h (0 Bft) W-SW 256 0 min 0,000 mm 0,0 UV-I 0 W/m -0,4 C 2,3 C 4,0 km/h (1 Bft) 0,00 %
08.12.2014 06:00 2,5 C 82 % 1019,6 hPa 0,0 l/m 0,0 km/h (0 Bft) S 188 0 min 0,000 mm 0,0 UV-I 0 W/m -0,3 C 2,5 C 0,0 km/h (0 Bft) 0,00 %
08.12.2014 06:15 2,3 C 78 % 1019,6 hPa 0,0 l/m 0,0 km/h (0 Bft) O-SO 108 0 min 0,000 mm 0,0 UV-I 0 W/m -1,1 C 2,3 C 0,0 km/h (0 Bft) 0,00 %
08.12.2014 06:30 1,9 C 79 % 1019,8 hPa 0,0 l/m 0,0 km/h (0 Bft) SW 230 0 min 0,000 mm 0,0 UV-I 0 W/m -1,3 C 1,9 C 0,0 km/h (0 Bft) 0,00 %
08.12.2014 06:45 1,8 C 79 % 1019,7 hPa 0,0 l/m 0,0 km/h (0 Bft) W-SW 240 0 min 0,000 mm 0,0 UV-I 0 W/m -1,4 C 1,8 C 0,0 km/h (0 Bft) 0,00 %
08.12.2014 07:00 2,3 C 78 % 1019,6 hPa 0,0 l/m 4,0 km/h (1 Bft) SW 235 0 min 0,000 mm 0,0 UV-I 0 W/m -1,1 C 2,3 C 7,9 km/h (2 Bft) 0,00 %
08.12.2014 07:15 2,4 C 82 % 1019,7 hPa 0,0 l/m 0,0 km/h (0 Bft) W-SW 256 0 min 0,000 mm 0,0 UV-I 0 W/m -0,4 C 2,4 C 0,0 km/h (0 Bft) 0,00 %
08.12.2014 07:30 2,5 C 82 % 1019,8 hPa 0,0 l/m 0,4 km/h (0 Bft) W-SW 251 0 min 0,000 mm 0,0 UV-I 0 W/m -0,3 C 2,5 C 4,0 km/h (1 Bft) 0,00 %
08.12.2014 07:45 2,5 C 82 % 1019,9 hPa 0,0 l/m 0,0 km/h (0 Bft) SW 230 0 min 0,000 mm 0,0 UV-I 0 W/m -0,3 C 2,5 C 0,0 km/h (0 Bft) 0,00 %
08.12.2014 08:00 2,5 C 83 % 1020,0 hPa 0,0 l/m 0,4 km/h (0 Bft) W-SW 244 0 min 0,000 mm 0,0 UV-I 0 W/m -0,1 C 2,5 C 4,0 km/h (1 Bft) 0,00 %
08.12.2014 08:15 2,6 C 83 % 1020,2 hPa 0,3 l/m 0,0 km/h (0 Bft) SW 230 0 min 0,000 mm 0,0 UV-I 2 W/m 0,0 C 2,6 C 0,0 km/h (0 Bft) 0,00 %
08.12.2014 08:30 2,6 C 83 % 1020,4 hPa 0,0 l/m 0,0 km/h (0 Bft) W-SW 251 0 min 0,000 mm 0,0 UV-I 4 W/m 0,0 C 2,6 C 0,0 km/h (0 Bft) 0,00 %
08.12.2014 08:45 2,6 C 84 % 1020,4 hPa 0,3 l/m 4,7 km/h (1 Bft) W-SW 256 0 min 0,000 mm 0,0 UV-I 25 W/m 0,2 C 2,6 C 7,9 km/h (2 Bft) 0,00 %
08.12.2014 09:00 2,7 C 83 % 1020,7 hPa 0,0 l/m 0,0 km/h (0 Bft) S 172 0 min 0,000 mm 0,0 UV-I 31 W/m 0,1 C 2,7 C 0,0 km/h (0 Bft) 0,00 %
08.12.2014 09:15 2,7 C 83 % 1020,5 hPa 0,3 l/m 0,7 km/h (0 Bft) S-SW 200 0 min 0,000 mm 1,0 UV-I 28 W/m 0,1 C 2,7 C 4,0 km/h (1 Bft) 0,00 %
08.12.2014 09:30 2,7 C 83 % 1020,7 hPa 0,0 l/m 0,7 km/h (0 Bft) W-SW 251 0 min 0,000 mm 1,0 UV-I 39 W/m 0,1 C 2,7 C 4,0 km/h (1 Bft) 0,00 %
08.12.2014 09:45 2,9 C 83 % 1020,8 hPa 0,0 l/m 4,3 km/h (1 Bft) W-SW 252 0 min 0,000 mm 0,0 UV-I 39 W/m 0,3 C 2,9 C 7,9 km/h (2 Bft) 0,00 %
08.12.2014 10:00 2,8 C 83 % 1020,9 hPa 0,0 l/m 2,9 km/h (1 Bft) W 272 0 min 0,000 mm 0,0 UV-I 32 W/m 0,2 C 2,8 C 4,0 km/h (1 Bft) 0,00 %
08.12.2014 10:15 2,8 C 83 % 1021,1 hPa 0,0 l/m 4,3 km/h (1 Bft) W-SW 250 0 min 0,000 mm 0,0 UV-I 23 W/m 0,2 C 2,8 C 7,9 km/h (2 Bft) 0,00 %
08.12.2014 10:30 2,7 C 83 % 1020,9 hPa 0,0 l/m 0,4 km/h (0 Bft) W 268 0 min 0,000 mm 0,0 UV-I 39 W/m 0,1 C 2,7 C 4,0 km/h (1 Bft) 0,00 %
08.12.2014 10:45 2,7 C 83 % 1020,9 hPa 0,0 l/m 0,4 km/h (0 Bft) W-SW 253 0 min 0,000 mm 1,0 UV-I 26 W/m 0,1 C 2,7 C 4,0 km/h (1 Bft) 0,00 %
08.12.2014 11:00 2,9 C 83 % 1021,0 hPa 0,0 l/m 0,4 km/h (0 Bft) N 357 0 min 0,000 mm 1,0 UV-I 64 W/m 0,3 C 2,9 C 4,0 km/h (1 Bft) 0,00 %
08.12.2014 11:15 3,1 C 82 % 1020,6 hPa 0,0 l/m 0,4 km/h (0 Bft) W-NW 290 0 min 0,000 mm 1,0 UV-I 72 W/m 0,3 C 3,1 C 4,0 km/h (1 Bft) 0,00 %
08.12.2014 11:30 3,1 C 82 % 1020,5 hPa 0,0 l/m 1,8 km/h (1 Bft) W-SW 239 0 min 0,000 mm 1,0 UV-I 60 W/m 0,3 C 3,1 C 4,0 km/h (1 Bft) 0,00 %
08.12.2014 11:45 3,1 C 82 % 1020,5 hPa 0,0 l/m 0,4 km/h (0 Bft) W-SW 238 0 min 0,000 mm 1,0 UV-I 62 W/m 0,3 C 3,1 C 4,0 km/h (1 Bft) 0,00 %
08.12.2014 12:00 3,3 C 82 % 1020,5 hPa 0,0 l/m 0,0 km/h (0 Bft) W-SW 255 0 min 0,000 mm 1,0 UV-I 63 W/m 0,5 C 3,3 C 0,0 km/h (0 Bft) 0,00 %
08.12.2014 12:15 3,2 C 82 % 1020,1 hPa 0,0 l/m 1,4 km/h (1 Bft) SW 231 0 min 0,000 mm 1,0 UV-I 58 W/m 0,4 C 3,2 C 4,0 km/h (1 Bft) 0,00 %
08.12.2014 12:30 3,2 C 82 % 1020,1 hPa 0,0 l/m 0,0 km/h (0 Bft) W-SW 254 0 min 0,000 mm 1,0 UV-I 79 W/m 0,4 C 3,2 C 0,0 km/h (0 Bft) 0,00 %
08.12.2014 12:45 3,4 C 81 % 1019,7 hPa 0,0 l/m 0,0 km/h (0 Bft) W-NW 294 0 min 0,000 mm 1,0 UV-I 97 W/m 0,5 C 3,4 C 0,0 km/h (0 Bft) 0,00 %
08.12.2014 13:00 3,4 C 81 % 1019,7 hPa 0,0 l/m 2,9 km/h (1 Bft) W-SW 256 0 min 0,000 mm 1,0 UV-I 60 W/m 0,5 C 3,4 C 4,0 km/h (1 Bft) 0,00 %
08.12.2014 13:15 3,7 C 80 % 1019,8 hPa 0,0 l/m 0,0 km/h (0 Bft) SW 228 0 min 0,000 mm 1,0 UV-I 120 W/m 0,6 C 3,7 C 0,0 km/h (0 Bft) 0,00 %
08.12.2014 13:30 3,5 C 78 % 1019,6 hPa 0,0 l/m 0,0 km/h (0 Bft) W-SW 257 0 min 0,000 mm 1,0 UV-I 85 W/m 0,0 C 3,5 C 0,0 km/h (0 Bft) 0,00 %
08.12.2014 13:45 3,5 C 79 % 1019,4 hPa 0,0 l/m 0,7 km/h (0 Bft) W-SW 254 0 min 0,000 mm 1,0 UV-I 80 W/m 0,2 C 3,5 C 4,0 km/h (1 Bft) 0,00 %
08.12.2014 14:00 3,3 C 80 % 1019,4 hPa 0,0 l/m 0,0 km/h (0 Bft) W-SW 252 0 min 0,000 mm 1,0 UV-I 68 W/m 0,2 C 3,3 C 0,0 km/h (0 Bft) 0,00 %
08.12.2014 14:15 3,1 C 80 % 1019,5 hPa 0,0 l/m 0,4 km/h (0 Bft) W-SW 253 0 min 0,000 mm 1,0 UV-I 39 W/m -0,0 C 3,1 C 4,0 km/h (1 Bft) 0,00 %
08.12.2014 14:30 3,2 C 81 % 1019,4 hPa 0,0 l/m 0,0 km/h (0 Bft) W 265 0 min 0,000 mm 1,0 UV-I 58 W/m 0,3 C 3,2 C 0,0 km/h (0 Bft) 0,00 %
08.12.2014 14:45 3,2 C 82 % 1019,1 hPa 0,0 l/m 0,0 km/h (0 Bft) W-SW 255 0 min 0,000 mm 0,0 UV-I 38 W/m 0,4 C 3,2 C 0,0 km/h (0 Bft) 0,00 %
08.12.2014 15:00 3,2 C 81 % 1019,2 hPa 0,0 l/m 0,0 km/h (0 Bft) W-SW 252 0 min 0,000 mm 0,0 UV-I 51 W/m 0,3 C 3,2 C 0,0 km/h (0 Bft) 0,00 %
08.12.2014 15:15 3,1 C 81 % 1019,3 hPa 0,0 l/m 0,0 km/h (0 Bft) S-SW 212 0 min 0,000 mm 0,0 UV-I 28 W/m 0,2 C 3,1 C 0,0 km/h (0 Bft) 0,00 %
08.12.2014 15:30 2,9 C 81 % 1019,3 hPa 0,0 l/m 0,0 km/h (0 Bft) SW 226 0 min 0,000 mm 0,0 UV-I 9 W/m -0,0 C 2,9 C 0,0 km/h (0 Bft) 0,00 %
08.12.2014 15:45 2,7 C 82 % 1019,1 hPa 0,0 l/m 0,0 km/h (0 Bft) SW 231 0 min 0,000 mm 0,0 UV-I 1 W/m -0,1 C 2,7 C 0,0 km/h (0 Bft) 0,00 %
08.12.2014 16:00 2,6 C 82 % 1019,2 hPa 0,0 l/m 0,0 km/h (0 Bft) W-SW 251 0 min 0,000 mm 0,0 UV-I 0 W/m -0,2 C 2,6 C 0,0 km/h (0 Bft) 0,00 %
08.12.2014 16:15 2,6 C 82 % 1019,3 hPa 0,0 l/m 0,0 km/h (0 Bft) SW 224 0 min 0,000 mm 0,0 UV-I 0 W/m -0,2 C 2,6 C 0,0 km/h (0 Bft) 0,00 %
08.12.2014 16:30 2,6 C 83 % 1019,2 hPa 0,0 l/m 0,0 km/h (0 Bft) SW 234 0 min 0,000 mm 0,0 UV-I 0 W/m 0,0 C 2,6 C 0,0 km/h (0 Bft) 0,00 %
08.12.2014 16:45 2,5 C 79 % 1019,6 hPa 0,0 l/m 0,0 km/h (0 Bft) SW 234 0 min 0,000 mm 0,0 UV-I 0 W/m -0,8 C 2,5 C 0,0 km/h (0 Bft) 0,00 %
08.12.2014 17:00 2,4 C 79 % 1019,4 hPa 0,0 l/m 0,0 km/h (0 Bft) S-SW 203 0 min 0,000 mm 0,0 UV-I 0 W/m -0,9 C 2,4 C 0,0 km/h (0 Bft) 0,00 %
08.12.2014 17:15 2,3 C 79 % 1019,1 hPa 0,0 l/m 0,0 km/h (0 Bft) S 179 0 min 0,000 mm 0,0 UV-I 0 W/m -1,0 C 2,3 C 0,0 km/h (0 Bft) 0,00 %
08.12.2014 17:30 2,2 C 80 % 1019,1 hPa 0,0 l/m 0,0 km/h (0 Bft) SW 220 0 min 0,000 mm 0,0 UV-I 0 W/m -0,9 C 2,2 C 0,0 km/h (0 Bft) 0,00 %
08.12.2014 17:45 2,1 C 80 % 1019,2 hPa 0,0 l/m 0,0 km/h (0 Bft) SW 220 0 min 0,000 mm 0,0 UV-I 0 W/m -1,0 C 2,1 C 0,0 km/h (0 Bft) 0,00 %
08.12.2014 18:00 2,1 C 80 % 1019,3 hPa 0,0 l/m 0,0 km/h (0 Bft) S-SW 193 0 min 0,000 mm 0,0 UV-I 0 W/m -1,0 C 2,1 C 0,0 km/h (0 Bft) 0,00 %
08.12.2014 18:15 2,0 C 80 % 1019,3 hPa 0,0 l/m 0,0 km/h (0 Bft) S 173 0 min 0,000 mm 0,0 UV-I 0 W/m -1,1 C 2,0 C 0,0 km/h (0 Bft) 0,00 %
08.12.2014 18:30 1,8 C 80 % 1019,3 hPa 0,0 l/m 0,0 km/h (0 Bft) W-SW 238 0 min 0,000 mm 0,0 UV-I 0 W/m -1,3 C 1,8 C 0,0 km/h (0 Bft) 0,00 %
08.12.2014 18:45 1,6 C 80 % 1019,2 hPa 0,0 l/m 0,0 km/h (0 Bft) SO 134 0 min 0,000 mm 0,0 UV-I 0 W/m -1,5 C 1,6 C 0,0 km/h (0 Bft) 0,00 %
08.12.2014 19:00 1,3 C 81 % 1019,3 hPa 0,0 l/m 0,0 km/h (0 Bft) O-SO 123 0 min 0,000 mm 0,0 UV-I 0 W/m -1,6 C 1,3 C 0,0 km/h (0 Bft) 0,00 %
08.12.2014 19:15 1,0 C 81 % 1019,4 hPa 0,0 l/m 0,0 km/h (0 Bft) S 175 0 min 0,000 mm 0,0 UV-I 0 W/m -1,9 C 1,0 C 0,0 km/h (0 Bft) 0,00 %
08.12.2014 19:30 0,7 C 81 % 1019,6 hPa 0,0 l/m 0,0 km/h (0 Bft) S-SW 206 0 min 0,000 mm 0,0 UV-I 0 W/m -2,2 C 0,7 C 0,0 km/h (0 Bft) 0,00 %
08.12.2014 19:45 0,5 C 81 % 1019,6 hPa 0,0 l/m 0,0 km/h (0 Bft) S-SW 205 0 min 0,000 mm 0,0 UV-I 0 W/m -2,4 C 0,5 C 0,0 km/h (0 Bft) 0,00 %
08.12.2014 20:00 0,5 C 82 % 1019,6 hPa 0,0 l/m 0,0 km/h (0 Bft) S 175 0 min 0,000 mm 0,0 UV-I 0 W/m -2,2 C 0,5 C 0,0 km/h (0 Bft) 0,00 %
08.12.2014 20:15 0,8 C 82 % 1019,6 hPa 0,0 l/m 0,0 km/h (0 Bft) S 174 0 min 0,000 mm 0,0 UV-I 0 W/m -1,9 C 0,8 C 0,0 km/h (0 Bft) 0,00 %
08.12.2014 20:30 1,0 C 82 % 1019,5 hPa 0,0 l/m 0,0 km/h (0 Bft) S-SW 201 0 min 0,000 mm 0,0 UV-I 0 W/m -1,7 C 1,0 C 0,0 km/h (0 Bft) 0,00 %
08.12.2014 20:45 1,0 C 82 % 1019,3 hPa 0,0 l/m 0,0 km/h (0 Bft) S-SW 201 0 min 0,000 mm 0,0 UV-I 0 W/m -1,7 C 1,0 C 0,0 km/h (0 Bft) 0,00 %
08.12.2014 21:00 1,0 C 82 % 1019,3 hPa 0,0 l/m 0,0 km/h (0 Bft) S-SW 201 0 min 0,000 mm 0,0 UV-I 0 W/m -1,7 C 1,0 C 0,0 km/h (0 Bft) 0,00 %
08.12.2014 21:15 1,0 C 82 % 1019,6 hPa 0,0 l/m 0,0 km/h (0 Bft) SW 216 0 min 0,000 mm 0,0 UV-I 0 W/m -1,7 C 1,0 C 0,0 km/h (0 Bft) 0,00 %
08.12.2014 21:30 1,1 C 82 % 1019,4 hPa 0,0 l/m 0,0 km/h (0 Bft) SW 216 0 min 0,000 mm 0,0 UV-I 0 W/m -1,6 C 1,1 C 0,0 km/h (0 Bft) 0,00 %
08.12.2014 21:45 1,1 C 82 % 1019,4 hPa 0,0 l/m 0,0 km/h (0 Bft) SW 216 0 min 0,000 mm 0,0 UV-I 0 W/m -1,6 C 1,1 C 0,0 km/h (0 Bft) 0,00 %
08.12.2014 22:00 1,1 C 82 % 1019,7 hPa 0,0 l/m 0,0 km/h (0 Bft) SW 216 0 min 0,000 mm 0,0 UV-I 0 W/m -1,6 C 1,1 C 0,0 km/h (0 Bft) 0,00 %
08.12.2014 22:15 1,2 C 82 % 1019,7 hPa 0,0 l/m 0,0 km/h (0 Bft) SW 216 0 min 0,000 mm 0,0 UV-I 0 W/m -1,5 C 1,2 C 0,0 km/h (0 Bft) 0,00 %
08.12.2014 22:30 1,3 C 82 % 1019,7 hPa 0,0 l/m 0,0 km/h (0 Bft) S 180 0 min 0,000 mm 0,0 UV-I 0 W/m -1,4 C 1,3 C 0,0 km/h (0 Bft) 0,00 %
08.12.2014 22:45 1,4 C 82 % 1019,4 hPa 0,0 l/m 0,0 km/h (0 Bft) SO 138 0 min 0,000 mm 0,0 UV-I 0 W/m -1,3 C 1,4 C 0,0 km/h (0 Bft) 0,00 %
08.12.2014 23:00 1,4 C 82 % 1019,3 hPa 0,0 l/m 0,0 km/h (0 Bft) S-SW 211 0 min 0,000 mm 0,0 UV-I 0 W/m -1,3 C 1,4 C 0,0 km/h (0 Bft) 0,00 %
08.12.2014 23:15 1,4 C 83 % 1019,2 hPa 0,0 l/m 0,0 km/h (0 Bft) S-SW 211 0 min 0,000 mm 0,0 UV-I 0 W/m -1,2 C 1,4 C 0,0 km/h (0 Bft) 0,00 %
08.12.2014 23:30 1,4 C 82 % 1019,5 hPa 0,0 l/m 0,0 km/h (0 Bft) SO 145 0 min 0,000 mm 0,0 UV-I 0 W/m -1,3 C 1,4 C 0,0 km/h (0 Bft) 0,00 %
08.12.2014 23:45 1,4 C 82 % 1019,5 hPa 0,0 l/m 0,0 km/h (0 Bft) SO 141 0 min 0,000 mm 0,0 UV-I 0 W/m -1,3 C 1,4 C 0,0 km/h (0 Bft) 0,00 %
_ Min-Zeit 19:45 06:15 14:45 - 01:30 - - - - - - 19:45 19:45 01:30 00:00
Minimum _ 0,5 C 78 % 1019,1 hPa - 0,0 km/h (0 Bft) - - - - - - -2,4 C 0,5 C 0,0 km/h (0 Bft) 0,00 %
_ Max-Zeit 13:15 00:00 10:15 08:15 08:45 - - 00:00 00:00 09:15 13:15 13:15 13:15 01:15 00:00
Maximum _ 3,7 C 85 % 1021,1 hPa 0,3 l/m 4,7 km/h
W-SW (1 Bft)
- - 0 min 0,000 mm 1,0 UV-I 120 W/m 0,6 C 3,7 C 7,9 km/h
W-SW (2 Bft)
0,00 %
Durchschnitt _ 2,4 C 82 % 1019,8 hPa #0,9 l/m 0,5 km/h (0 Bft) W-SW - #0 min. #0,000 mm 1,0 UV-I 48 W/m -0,4 C 2,4 C 1,6 km/h (1 Bft) 0,00 %